Weather in Livenka

Russia / Belgorod Oblast     50°26′50″N   38°17′46″E
temp.,
°C
wind,
m/s
gust,
m/s
humid.,
%
clouds,
%
prec.,
mm/h
press.,
hPa
HPBL,
m
29 june, wed
wed2900:00+18ne511885 0.0 1017282
03:00+16ne38965 0.0 1018173
06:00+16ene37905 0.0 1019239
09:00+20ene56675 0.0 1019575
12:00+22ene55555 0.0 10201267
15:00+23ene44515 0.0 10191576
18:00+22ene3462100 0.0 1018761
21:00+17ese346953 0.0 101852
30 june, thu
thu3000:00+15ese2375100 0.0 101836
03:00+14e1176100 0.0 101911
06:00+15e237694 0.0 101873
09:00+19e2361100 0.0 1018477
12:00+21e1254100 0.0 10181084
15:00+21nne2255100 0.0 10171396
18:00+21n336648 0.2 1016746
21:00+16nnw11818 0.4 101711
1 july, fri
fri100:00+15nw338469 0.1 101732
03:00+13n33860 0.1 101737
06:00+14n37840 0.0 1017159
09:00+19n46650 0.0 1018611
12:00+22nne57510 0.0 10182052
15:00+23nne68465 0.0 10172307
18:00+21nne58590 0.0 1017898
21:00+15ne33790 0.0 101929
2 july, sat
sat200:00+13ne22795 0.0 102022
03:00+12nne22830 0.0 102019
06:00+12n24773 0.0 1021118
09:00+18nne45570 0.0 1022628
12:00+21nne35475 0.0 10211590
15:00+22n354653 0.0 10201845
18:00+22nnw2459100 0.0 10191277
21:00+17wnw22739 0.0 101911
3 july, sun
sun300:00+16w227698 0.0 101914
03:00+16wnw348051 0.1 101776
06:00+16nw278828 0.0 1017190
09:00+22nnw46733 0.2 1017606
12:00+25n57590 0.1 10161550
15:00+26n694811 0.2 10162333
18:00+25nne47620 0.0 1016597
21:00+18ene35860 0.1 101882